Regional Weather Roundup
Issued by NWS

Home | Current Version | Previous Version | Graphics & Text | Print | Product List | Glossary On
Versions: 1 2 3 4 5 6 7 8 9 10 11 12 13 14 15 16 17 18 19 20 21 22 23 24 25 26 27 28 29 30 31 32 33 34 35 36 37 38 39 40 41 42 43 44 45 46 47 48 49 50
963
ASUS43 KLSX 291010
RWRMO

WEATHER SUMMARY FOR MISSOURI
NATIONAL WEATHER SERVICE SPRINGFIELD MO
500 AM CDT FRI JUL 29 2016

NOTE: "FAIR" INDICATES FEW OR NO CLOUDS BELOW 12,000 FEET WITH NO
       SIGNIFICANT WEATHER AND/OR OBSTRUCTIONS TO VISIBILITY.
       CURRENT SKY AND/OR WEATHER CONDITIONS ARE NOT AVAILABLE FOR
       CHILLICOTHE AND FARMINGTON.

MOZ001>031-035>038-043-044-053-054-291100-
...NORTHERN AND WESTERN MISSOURI...

CITY           SKY/WX    TMP DP  RH WIND       PRES   REMARKS
KANSAS CTY INT PTCLDY    69  63  81 NE9       29.94F
KANSAS C DTWN  CLEAR     72  65  78 NE6       29.92F
LEE`S SUMMIT   CLEAR     71  66  84 NE7       29.93F
ST JOSEPH      PTCLDY    66  64  93 N6        29.95F
CHILLICOTHE      N/A     68  65  90 N5        29.95F
KIRKSVILLE     CLEAR     65  63  93 N6        29.96R

$$
MOZ066>068-077>081-088>096-101>105-291100-
...SOUTHWEST MISSOURI...

CITY           SKY/WX    TMP DP  RH WIND       PRES   REMARKS
SPRINGFIELD    CLEAR     71  68  90 SE6       29.91F
JOPLIN         CLEAR     69  67  93 CALM      29.91F
BRANSON        CLEAR     70  68  94 CALM      29.94F

$$
MOZ032>034-039>042-045>050-055>058-069>072-291100-
...CENTRAL MISSOURI...

CITY           SKY/WX    TMP DP  RH WIND       PRES   REMARKS
COLUMBIA       PTCLDY    70  68  93 CALM      29.94S
JEFFERSON CITY PTCLDY    70  69  97 CALM      29.92F
ROLLA          PTCLDY    67  65  93 NE3       29.93S
SEDALIA        MOCLDY    73  70  90 NE3       29.93F
WHITEMAN AFB   PTCLDY    71  71 100 NE7       29.92F
OSAGE BEACH    PTCLDY    69  69 100 E3        29.93F

$$
MOZ051-052-059>065-291100-
...EAST CENTRAL MISSOURI...

CITY           SKY/WX    TMP DP  RH WIND       PRES   REMARKS
ST LOUIS INTL  PTCLDY    74  69  85 NW3       29.93R
SPIRIT OF STL  PTCLDY    74  70  87 N3        29.91R
ST CHARLES     PTCLDY    74  67  78 CALM      29.91R

$$
MOZ072>076-082>087-097>100-106>115-291100-
...SOUTH CENTRAL AND SOUTHEAST MISSOURI...

CITY           SKY/WX    TMP DP  RH WIND       PRES   REMARKS
CAPE GIRARDEAU CLOUDY    72  70  93 S5        29.90S
FARMINGTON     PTCLDY    71  69  93 W3        29.93S
POPLAR BLUFF   MOCLDY    71  69  93 SW3       29.90F
WEST PLAINS    CLEAR     67  64  90 CALM      29.96F

$$




USA.gov is the U.S. government's official web portal to all federal, state and local government web resources and services.